#timestamp,LO_Frequency,Hit,StdDev 
1554242415.9,286046999.3,N
1554242435.7,286046996.9,Y
1554242455.5,286046996.7,P
1554242475.4,286046999.4,N
1554242495.2,286046999.5,N
1554242515.0,286046997.3,N
1554242515.9,286046997.3,N
1554242535.8,286046997.1,N
1554242555.6,286046996.8,N
1554242575.5,286046997.5,N
1554242595.3,286046996.6,Y
1554242615.1,286046999.4,P
1554242635.9,286046996.7,P
1554242655.7,286046999.3,N
1554242675.5,286046998.9,N
1554242695.4,286046999.1,N
1554242715.2,286046996.6,Y
1554242735.1,286047001.1,P
1554242736.0,286047001.1,N
1554242755.8,286047002.7,N
1554242775.6,286047000.1,N
1554242795.5,286047000.2,N
1554242815.3,286046999.9,N
1554242835.1,286047000.4,N
1554242855.9,286047001.1,N
1554242875.7,286046999.1,N
1554242895.6,286046998.7,N
1554242915.4,286046999.3,N
1554242935.2,286046998.4,N
1554242955.1,286046998.7,N
1554242956.0,286046998.7,N
1554242975.8,286046999.2,N
1554242995.6,286046998.3,N
1554243015.5,286046998.9,N
1554243035.3,286046999.0,N
1554243055.2,286046997.6,N
1554243075.9,286046997.9,N
1554243095.7,286046997.2,N
1554243115.6,286046996.5,N
1554243135.4,286046996.9,N
1554243155.2,286046999.5,N
1554243175.1,286046997.0,N
1554243176.0,286046997.0,N
1554243195.8,286046998.9,N
1554243215.7,286046996.5,N
1554243235.5,286046996.9,N
1554243255.3,286046999.3,N
1554243275.2,286046998.9,N
1554243295.0,286046998.6,N
1554243295.9,286046998.6,N
1554243315.7,286046999.3,N
1554243335.6,286046999.6,N
1554243355.4,286046998.0,N
1554243375.3,286046995.8,Y
1554243395.1,286046999.0,P
1554243415.8,286047000.9,P
1554243435.7,286046998.6,N
1554243455.5,286046998.5,N
1554243475.3,286046998.1,N
1554243495.2,286046997.0,Y
1554243515.0,286046999.1,P
1554243515.9,286046999.1,P
1554243535.8,286046999.4,P
1554243555.6,286046998.2,Y
1554243575.5,286047002.8,P
1554243595.3,286046999.9,N
1554243615.1,286047002.8,N
1554243635.9,286046999.9,N
1554243655.7,286046999.3,N
1554243675.5,286046997.2,N
1554243695.4,286046997.7,N
1554243715.2,286046999.3,N
1554243735.1,286046999.0,N
1554243736.0,286046999.0,N
1554243755.8,286046998.4,N
1554243775.6,286046998.6,N
1554243795.5,286046998.2,N
1554243815.3,286047001.2,N
1554243835.1,286046999.3,N
1554243855.9,286046998.2,N
1554243875.7,286046998.8,N
1554243895.6,286047001.0,N
1554243915.4,286046999.9,N
1554243935.2,286047001.8,N
1554243955.1,286047001.9,N
1554243956.0,286047001.9,N
1554243975.8,286046999.7,N
1554243995.6,286046999.8,N
1554244015.5,286047000.2,N
1554244035.3,286047001.4,N
1554244055.1,286047000.1,N
1554244075.9,286047002.3,N
1554244095.7,286047000.4,N
1554244115.6,286046998.4,N
1554244135.4,286046998.7,N
1554244155.2,286046998.1,N
1554244175.1,286046999.1,N
1554244176.0,286046999.1,N
1554244195.8,286046998.3,N
1554244215.6,286047000.2,N
1554244235.5,286047001.0,N
1554244255.3,286046998.3,N
1554244275.2,286046999.0,N
1554244295.9,286046999.3,N
1554244315.7,286046996.9,N
1554244335.6,286046998.6,N
1554244355.4,286046999.0,N
1554244375.2,286046999.5,N
1554244395.1,286046997.0,N
1554244396.0,286046997.0,N
1554244415.8,286046997.5,N
1554244435.7,286046997.8,N
1554244455.5,286046996.7,N
1554244475.3,286046997.0,N
1554244495.2,286046998.7,N
1554244515.0,286046999.6,N
1554244515.9,286046999.6,N
1554244535.7,286046996.5,N
1554244555.6,286046998.7,N
1554244575.4,286047001.1,N
1554244595.3,286046999.1,N
1554244615.1,286046999.3,N
1554244616.0,286046999.3,N
1554244635.8,286046997.1,N
1554244655.7,286046994.9,Y
1554244675.5,286047000.0,P
1554244695.3,286047001.2,N
1554244715.2,286047000.4,N
1554244735.0,286047002.0,N
1554244735.9,286047002.0,N
1554244755.8,286047003.9,Y
1554244775.6,286047001.6,P
1554244795.4,286047002.7,P
1554244815.3,286047002.2,N
1554244835.1,286047002.1,N
1554244855.8,286047001.5,N
1554244875.7,286047001.3,N
1554244895.5,286047003.1,Y
1554244915.4,286047003.7,P
1554244935.2,286047004.4,P
1554244955.0,286047002.4,N
1554244955.9,286047002.4,N
1554244975.8,286046999.7,N
1554244995.6,286047000.7,N
1554245015.4,286046997.3,N
1554245035.3,286046997.9,N
1554245055.1,286046996.6,N
1554245075.9,286046999.6,N
1554245095.7,286046997.4,N
1554245115.5,286046996.7,N
1554245135.4,286046998.8,N
1554245155.2,286047001.2,N
1554245175.0,286047002.3,N
1554245175.9,286047002.3,N
1554245195.8,286047000.9,N
1554245215.6,286047000.1,N
1554245235.5,286047000.0,N
1554245255.3,286046999.9,N
1554245275.1,286047004.4,N
1554245295.9,286047000.2,N
1554245315.7,286046998.2,N
1554245335.5,286046999.9,N
1554245355.4,286047000.1,N
1554245375.2,286047002.8,N
1554245395.1,286047000.0,N
1554245396.0,286047000.0,N
1554245415.8,286046999.8,N
1554245435.6,286046998.8,N
1554245455.5,286047000.6,N
1554245475.3,286047000.1,N
1554245495.2,286046998.4,N
1554245515.9,286046999.0,N
1554245535.7,286046999.2,N
1554245555.6,286046996.6,N
1554245575.4,286047001.1,N
1554245595.2,286046999.0,N
1554245615.1,286046999.4,N
1554245616.0,286046999.4,N
1554245635.8,286047000.8,N
1554245655.7,286046999.3,N
1554245675.5,286046997.0,N
1554245695.3,286047000.9,N
1554245715.2,286046998.8,N
1554245735.0,286046998.1,N
1554245735.9,286046998.1,N
1554245755.7,286047001.1,N
1554245775.6,286047001.1,N
1554245795.4,286046998.2,N
1554245815.3,286047000.4,N
1554245835.1,286047002.4,N
1554245836.0,286047002.4,N
1554245855.8,286047002.3,N
1554245875.7,286047005.4,Y
1554245895.5,286047003.6,P
1554245915.3,286047003.9,N
1554245935.2,286047003.9,N
1554245955.0,286047002.1,N
1554245955.9,286047002.1,N
1554245975.8,286047000.4,N
1554245995.6,286046999.7,N
